Change the Weather History Date:

Thursday, June 20, 2013

  Actual Average Record
Temperature  
Mean Temperature 82 °F -  
Max Temperature 94 °F 90 °F - ()
Min Temperature 70 °F 73 °F - ()
Cooling Degree Days 17    
Growing Degree Days 32 (Base 50)    
Moisture  
Dew Point 71 °F    
Average Humidity 68    
Maximum Humidity 89    
Minimum Humidity 33    
Precipitation  
Precipitation 0.00 in 0.25 in - ()
Sea Level Pressure  
Sea Level Pressure 29.76 in    
Wind  
Wind Speed 4 mph ()    
Max Wind Speed 7 mph    
Max Gust Speed -    
Visibility 3.5 miles    
Events      
T = Trace of Precipitation, MM = Missing Value Source: Averaged Metar Reports

Daily Weather History Graph

Daily Weather History Graph

Search for Another Location

Airport or City:

Trip Planner

Search our weather history database for the weather conditions in past years. The results will help you decide how hot, cold, wet, or windy it might be!

Date:

Astronomy

Jun. 20, 2013 Rise Set
Actual Time 6:33 AM MYT 6:46 PM MYT
Civil Twilight 6:11 AM MYT 7:09 PM MYT
Nautical Twilight 5:45 AM MYT 7:35 PM MYT
Astronomical Twilight 5:18 AM MYT 8:01 PM MYT
Moon 3:36 PM MYT (6/20) 3:03 AM MYT (6/20)
Length of Visible Light 12h 57m
Length of Day
12h 12m
Waxing Gibbous, 84% of the Moon is Illuminated
Jun 20
Waxing Gibbous
Jun 23
Full
Jun 30
Last Quarter
Jul 8
New
Jul 16
First Quarter

Hourly Weather History & Observations

Time (MYT) Temp. Heat Index Dew Point Humidity Pressure Visibility Wind Dir Wind Speed Gust Speed Precip Events Conditions
12:00 AM 78.8 °F - 69.8 °F 74% 29.80 in 5.0 mi SW 4.6 mph - N/A   Mostly Cloudy
12:30 AM 77.0 °F - 71.6 °F 83% 29.80 in 5.0 mi SSW 3.5 mph - N/A   Mostly Cloudy
1:00 AM 75.2 °F - 69.8 °F 83% 29.80 in 5.0 mi SW 4.6 mph - N/A   Mostly Cloudy
1:30 AM 78.8 °F - 68.0 °F 69% 29.80 in 5.0 mi WSW 4.6 mph - N/A   Mostly Cloudy
2:00 AM 78 °F - 67 °F 61% 29.80 in 5 mi WSW 4.6 mph - -   Haze
2:00 AM 78.8 °F - 66.2 °F 65% 29.80 in 5.0 mi WSW 4.6 mph - N/A   Mostly Cloudy
2:30 AM 77.0 °F - 68.0 °F 74% 29.77 in 5.0 mi SW 3.5 mph - N/A   Mostly Cloudy
3:00 AM 77.0 °F - 68.0 °F 74% 29.77 in 5.0 mi WSW 3.5 mph - N/A   Mostly Cloudy
3:30 AM 77.0 °F - 68.0 °F 74% 29.77 in 5.0 mi West 3.5 mph - N/A   Mostly Cloudy
4:00 AM 77.0 °F - 66.2 °F 69% 29.77 in 5.0 mi West 5.8 mph - N/A   Mostly Cloudy
4:30 AM 78.8 °F - 64.4 °F 61% 29.77 in 5.0 mi West 6.9 mph - N/A   Mostly Cloudy
5:00 AM 74 °F - 68 °F 75% 29.78 in 5 mi South 4.6 mph - -   Haze
5:00 AM 75.2 °F - 68.0 °F 78% 29.77 in 5.0 mi South 4.6 mph - N/A   Mostly Cloudy
5:30 AM 71.6 °F - 68.0 °F 88% 29.77 in 5.0 mi South 5.8 mph - N/A   Mostly Cloudy
6:00 AM 71.6 °F - 68.0 °F 88% 29.77 in 5.0 mi SSW 4.6 mph - N/A   Mostly Cloudy
6:30 AM 71.6 °F - 66.2 °F 83% 29.77 in 5.0 mi SSW 4.6 mph - N/A   Mostly Cloudy
7:00 AM 71.6 °F - 68.0 °F 88% 29.80 in 3.7 mi SE 2.3 mph - N/A   Mostly Cloudy
7:30 AM 71.6 °F - 68.0 °F 88% 29.80 in 3.7 mi SSE 2.3 mph - N/A   Mostly Cloudy
8:00 AM 74 °F - 68 °F 77% 29.82 in 4 mi SE 2.3 mph - -   Haze
8:00 AM 73.4 °F - 68.0 °F 83% 29.80 in 3.7 mi SE 2.3 mph - N/A   Mostly Cloudy
8:30 AM 77.0 °F - 69.8 °F 78% 29.80 in 3.7 mi SSE 2.3 mph - N/A   Mostly Cloudy
9:00 AM 78.8 °F - 69.8 °F 74% 29.80 in 3.7 mi South 3.5 mph - N/A   Mostly Cloudy
9:30 AM 82.4 °F 87.2 °F 71.6 °F 70% 29.80 in 3.7 mi SE 4.6 mph - N/A   Mostly Cloudy
10:00 AM 84.2 °F 89.6 °F 71.6 °F 66% 29.80 in 3.7 mi ESE 4.6 mph - N/A   Mostly Cloudy
10:30 AM 86.0 °F 91.8 °F 71.6 °F 62% 29.77 in 3.7 mi SSE 6.9 mph - N/A   Mostly Cloudy
11:00 AM 86 °F - 70 °F 51% 29.79 in 3 mi SE 5.8 mph - -   Haze
11:00 AM 86.0 °F 90.4 °F 69.8 °F 58% 29.77 in 3.1 mi SE 5.8 mph - N/A   Haze
11:30 AM 87.8 °F 92.6 °F 69.8 °F 55% 29.77 in 3.1 mi SE 3.5 mph - N/A   Haze
12:00 PM 91.4 °F 95.4 °F 68.0 °F 46% 29.77 in 3.1 mi South 3.5 mph - N/A   Haze
12:30 PM 91.4 °F 95.4 °F 68.0 °F 46% 29.74 in 2.5 mi South 4.6 mph - N/A   Haze
1:00 PM 93.2 °F 98.8 °F 69.8 °F 46% 29.74 in 2.5 mi South 4.6 mph - N/A   Haze
1:30 PM 95.0 °F 99.5 °F 68.0 °F 41% 29.71 in 2.5 mi SSW 6.9 mph - N/A   Haze
2:00 PM 93 °F - 67 °F 33% 29.72 in 2 mi South 6.9 mph - -   Haze
2:00 PM 93.2 °F 97.7 °F 68.0 °F 44% 29.71 in 2.5 mi South 6.9 mph - N/A   Haze
2:30 PM 93.2 °F 96.2 °F 66.2 °F 41% 29.71 in 2.5 mi SSW 4.6 mph - N/A   Haze
3:00 PM 93.2 °F 97.7 °F 68.0 °F 44% 29.68 in 2.5 mi South 3.5 mph - N/A   Haze
3:30 PM 91.4 °F 98.4 °F 71.6 °F 52% 29.68 in 2.5 mi South 4.6 mph - N/A   Haze
4:00 PM 89.6 °F 96.2 °F 71.6 °F 55% 29.68 in 2.5 mi SSE 5.8 mph - N/A   Haze
4:30 PM 87.8 °F 93.8 °F 71.6 °F 58% 29.68 in 2.5 mi SSE 4.6 mph - N/A   Haze
5:00 PM 88 °F - 73 °F 52% 29.71 in 2 mi SE 4.6 mph - -   Haze
5:00 PM 87.8 °F 95.6 °F 73.4 °F 62% 29.71 in 2.5 mi SE 4.6 mph - N/A   Haze
5:30 PM 87.8 °F 95.6 °F 73.4 °F 62% 29.71 in 2.5 mi SE 3.5 mph - N/A   Haze
6:00 PM 86.0 °F 95.1 °F 75.2 °F 70% 29.71 in 2.5 mi East 2.3 mph - N/A   Haze
6:30 PM 86.0 °F 95.1 °F 75.2 °F 70% 29.71 in 2.5 mi ESE 2.3 mph - N/A   Haze
7:00 PM 84.2 °F 92.3 °F 75.2 °F 74% 29.74 in 2.5 mi ESE 3.5 mph - N/A   Haze
7:30 PM 84.2 °F 92.3 °F 75.2 °F 74% 29.74 in 2.5 mi SE 3.5 mph - N/A   Haze
8:00 PM 83 °F - 75 °F 71% 29.76 in 3 mi SE 2.3 mph - -   Haze
8:00 PM 82.4 °F 89.5 °F 75.2 °F 79% 29.74 in 3.1 mi SE 2.3 mph - N/A   Haze
8:30 PM 82.4 °F 89.5 °F 75.2 °F 79% 29.77 in 3.1 mi SSE 1.2 mph - N/A   Haze
9:00 PM 82.4 °F 90.9 °F 77.0 °F 84% 29.77 in 2.5 mi Calm Calm - N/A   Haze
9:30 PM 82.4 °F 89.5 °F 75.2 °F 79% 29.77 in 2.5 mi SSW 2.3 mph - N/A   Haze
10:00 PM 82.4 °F 88.2 °F 73.4 °F 74% 29.80 in 2.5 mi SW 3.5 mph - N/A   Haze
10:30 PM 80.6 °F 86.2 °F 75.2 °F 84% 29.80 in 2.5 mi West 3.5 mph - N/A   Haze
11:00 PM 80 °F - 75 °F 82% 29.83 in 2 mi West 1.2 mph - -   Haze
11:00 PM 80.6 °F 86.2 °F 75.2 °F 84% 29.80 in 2.5 mi West 1.2 mph - N/A   Haze
11:30 PM 78.8 °F - 75.2 °F 89% 29.83 in 2.5 mi SSW 5.8 mph - N/A   Haze